Погода в Болховском

Россия / Липецкая область     52°24′55″N   38°51′40″E
темп.,
°C
ветер,
м/с
пор.,
м/с
влажн.,
%
обл.,
%
осадки,
мм/ч
давл.,
гПа
погр.,
м
25 января, вт
вт2500:00−18св229960 0.0 103011
03:00−20с2210093 0.0 102913
06:00−19ссв22100100 0.1 102817
09:00−19св1110096 0.1 102710
12:00−12ссз1194100 0.0 1025124
15:00−10зюз1292100 0.1 1023184
18:00−13зюз2297100 0.0 102224
21:00−13юз2396100 0.0 102158
26 января, ср
ср2600:00−12зюз3595100 0.0 1020162
03:00−14зюз2596100 0.0 1019101
06:00−14юз269785 0.1 1018116
09:00−16юз2597100 0.1 101888
12:00−10юз3593100 0.1 1018213
15:00−8юз3593100 0.4 1017333
18:00−10юз2497100 0.1 101771
21:00−10з239783 0.2 101871
27 января, чт
чт2700:00−12з219782 0.1 101829
03:00−17з2210091 0.1 101910
06:00−16зсз119982 0.1 101810
09:00−18юз1110085 0.1 10199
12:00−11ююз239487 0.1 1018138
15:00−10ююз249595 0.1 1017175
18:00−14ю3597100 0.0 101668
21:00−13ю389693 0.0 1015129
28 января, пт
пт2800:00−13ю3109681 0.0 1013159
03:00−11ю4119593 0.1 1012257
06:00−10ю5119583 0.1 1010257
09:00−9ююв51195100 0.2 1009268
12:00−6ююв61395100 0.3 1007399
15:00−4ю61296100 1.1 1004546
18:00−3ю51297100 1.1 1003508
21:00−1юз51197100 2.0 1002481
29 января, сб
сб2900:00−1юз51196100 0.4 1003526
03:00−2ююз41097100 0.6 1004367
06:00−1юз51097100 0.6 1004530
09:00−1юз5995100 0.8 1004401
12:00−1юз489592 0.1 1005419
15:000зюз369799 0.3 1006442
18:00−1сз4797100 0.3 1007370
21:00−4сз5993100 0.3 1009436